| time (UTC) | temp C | wind direction | speed KPH | gust KPH | rain 1hr cm | rain 24hr cm | rain mn cm | humidity % | barometer mb |
| 20260906122835 | 25 | 91 | 3.2 | 3.2 | 0.00 | 0.00 | 0.00 | 93 | 993.4 |
| 20260906122330 | 25 | 105 | 6.4 | 8.0 | 0.00 | 0.00 | 0.00 | 93 | 993.7 |
| 20260906121827 | 25 | 357 | 1.6 | 1.6 | 0.00 | 0.00 | 0.00 | 93 | 993.8 |
| 20260906121323 | 25 | 25 | 1.6 | 1.6 | 0.00 | 0.00 | 0.00 | 93 | 993.7 |
| 20260906120819 | 25 | 15 | 1.6 | 1.6 | 0.00 | 0.00 | 0.00 | 93 | 993.8 |
| 20260906120314 | 25 | 23 | 1.6 | 1.6 | 0.00 | 0.00 | 0.00 | 93 | 993.8 |
| 20260906115810 | 25 | 354 | 1.6 | 3.2 | 0.00 | 0.00 | 0.00 | 93 | 993.9 |
| 20260906115306 | 25 | 40 | 0.0 | 0.0 | 0.00 | 0.00 | 0.00 | 93 | 994.1 |
| 20260906114805 | 24 | 18 | 1.6 | 1.6 | 0.00 | 0.00 | 0.00 | 92 | 994.0 |
| 20260906114259 | 24 | 355 | 3.2 | 3.2 | 0.00 | 0.00 | 0.00 | 93 | 993.8 |
| 20260906113755 | 24 | 349 | 1.6 | 1.6 | 0.00 | 0.00 | 0.00 | 93 | 993.8 |
| 20260906113249 | 25 | 350 | 0.0 | 0.0 | 0.00 | 0.00 | 0.00 | 92 | 993.9 |
| 20260906112748 | 25 | 8 | 3.2 | 3.2 | 0.00 | 0.00 | 0.00 | 92 | 993.8 |
| 20260906112245 | 25 | 358 | 3.2 | 3.2 | 0.00 | 0.00 | 0.00 | 92 | 993.4 |
| 20260906111739 | 24 | 6 | 1.6 | 3.2 | 0.00 | 0.00 | 0.00 | 93 | 993.3 |
| 20260906111233 | 24 | 7 | 4.8 | 4.8 | 0.00 | 0.00 | 0.00 | 93 | 993.3 |
| 20260906110728 | 24 | 13 | 0.0 | 0.0 | 0.00 | 0.00 | 0.00 | 94 | 993.2 |
| 20260906110225 | 23 | 4 | 0.0 | 1.6 | 0.00 | 0.00 | 0.00 | 95 | 992.9 |
| 20260906105723 | 23 | 8 | 4.8 | 8.0 | 0.00 | 0.00 | 0.00 | 97 | 993.0 |
| 20260906105219 | 23 | 60 | 6.4 | 9.7 | 0.00 | 0.00 | 0.00 | 97 | 993.2 |
| 20260906104719 | 23 | 288 | 0.0 | 0.0 | 0.00 | 0.00 | 0.00 | 97 | 992.2 |
| 20260906104218 | 23 | 277 | 0.0 | 0.0 | 0.00 | 0.00 | 0.00 | 97 | 992.2 |
| 20260906103716 | 23 | 286 | 0.0 | 0.0 | 0.00 | 0.00 | 0.00 | 96 | 992.3 |
| 20260906103211 | 24 | 294 | 0.0 | 0.0 | 0.00 | 0.00 | 0.00 | 96 | 992.4 |
| 20260906102706 | 24 | 317 | 0.0 | 0.0 | 0.00 | 0.00 | 0.00 | 95 | 992.2 |
| 20260906102205 | 23 | 322 | 0.0 | 0.0 | 0.00 | 0.00 | 0.00 | 96 | 992.2 |
| 20260906101700 | 23 | 323 | 0.0 | 0.0 | 0.00 | 0.00 | 0.00 | 96 | 992.1 |
| 20260906101155 | 23 | 311 | 0.0 | 0.0 | 0.00 | 0.00 | 0.00 | 96 | 992.2 |
| 20260906100650 | 24 | 317 | 0.0 | 0.0 | 0.00 | 0.00 | 0.00 | 96 | 992.1 |
| 20260906100145 | 24 | 334 | 0.0 | 0.0 | 0.00 | 0.00 | 0.00 | 95 | 992.1 |
| 20260906095640 | 23 | 57 | 1.6 | 1.6 | 0.00 | 0.00 | 0.00 | 95 | 992.1 |
| 20260906095135 | 24 | 10 | 0.0 | 0.0 | 0.00 | 0.00 | 0.00 | 94 | 991.7 |
| 20260906094634 | 24 | 321 | 0.0 | 0.0 | 0.00 | 0.00 | 0.00 | 95 | 991.8 |
| 20260906094130 | 24 | 319 | 0.0 | 0.0 | 0.00 | 0.00 | 0.00 | 95 | 991.7 |
| 20260906093626 | 24 | 313 | 0.0 | 0.0 | 0.00 | 0.00 | 0.00 | 95 | 991.8 |
| 20260906093126 | 24 | 301 | 0.0 | 0.0 | 0.00 | 0.00 | 0.00 | 94 | 991.8 |
| 20260906092621 | 24 | 339 | 0.0 | 0.0 | 0.00 | 0.00 | 0.00 | 94 | 991.6 |
| 20260906092116 | 24 | 327 | 0.0 | 0.0 | 0.00 | 0.00 | 0.00 | 94 | 991.6 |
| 20260906091612 | 25 | 352 | 0.0 | 0.0 | 0.00 | 0.00 | 0.00 | 93 | 991.6 |
| 20260906091109 | 24 | 328 | 0.0 | 0.0 | 0.00 | 0.00 | 0.00 | 93 | 991.5 |
| 20260906090608 | 25 | 303 | 0.0 | 0.0 | 0.00 | 0.00 | 0.00 | 93 | 991.4 |
| 20260906085602 | 25 | 303 | 0.0 | 0.0 | 0.00 | 0.00 | 0.00 | 93 | 991.6 |
| 20260906085056 | 25 | 318 | 0.0 | 0.0 | 0.00 | 0.00 | 0.00 | 93 | 991.7 |
| 20260906084551 | 25 | 313 | 0.0 | 0.0 | 0.00 | 0.00 | 0.00 | 93 | 991.8 |
| 20260906084050 | 25 | 321 | 0.0 | 0.0 | 0.00 | 0.00 | 0.00 | 93 | 991.8 |
| 20260906083546 | 25 | 313 | 0.0 | 0.0 | 0.00 | 0.00 | 0.00 | 92 | 992.0 |
| 20260906083045 | 25 | 312 | 0.0 | 0.0 | 0.00 | 0.00 | 0.00 | 92 | 991.9 |
| 20260906082540 | 25 | 293 | 0.0 | 0.0 | 0.00 | 0.00 | 0.00 | 93 | 991.7 |
| 20260906082036 | 25 | 305 | 0.0 | 0.0 | 0.00 | 0.00 | 0.00 | 92 | 991.8 |
| 20260906081532 | 25 | 315 | 0.0 | 0.0 | 0.00 | 0.00 | 0.00 | 92 | 991.9 |
| 20260906081027 | 25 | 321 | 0.0 | 0.0 | 0.00 | 0.00 | 0.00 | 92 | 991.7 |
| 20260906080524 | 25 | 321 | 0.0 | 0.0 | 0.00 | 0.00 | 0.00 | 92 | 992.1 |
| 20260906080019 | 25 | 329 | 0.0 | 0.0 | 0.00 | 0.00 | 0.00 | 91 | 991.9 |
| 20260906075513 | 25 | 338 | 0.0 | 0.0 | 0.00 | 0.00 | 0.00 | 91 | 991.7 |
| 20260906075009 | 25 | 299 | 0.0 | 0.0 | 0.00 | 0.00 | 0.00 | 92 | 991.9 |
| 20260906074503 | 25 | 298 | 0.0 | 0.0 | 0.00 | 0.00 | 0.00 | 91 | 991.8 |
| 20260906074001 | 25 | 297 | 0.0 | 0.0 | 0.00 | 0.00 | 0.00 | 92 | 991.8 |
| 20260906073456 | 25 | 260 | 0.0 | 0.0 | 0.00 | 0.00 | 0.00 | 91 | 991.7 |
| 20260906072953 | 25 | 300 | 0.0 | 0.0 | 0.00 | 0.00 | 0.00 | 91 | 991.9 |
| 20260906072448 | 25 | 319 | 0.0 | 0.0 | 0.00 | 0.00 | 0.00 | 91 | 992.0 |
| 20260906071943 | 25 | 321 | 0.0 | 0.0 | 0.00 | 0.00 | 0.00 | 90 | 991.7 |
| 20260906071439 | 25 | 300 | 0.0 | 0.0 | 0.00 | 0.00 | 0.00 | 90 | 991.6 |
| 20260906070935 | 25 | 300 | 0.0 | 0.0 | 0.00 | 0.00 | 0.00 | 90 | 991.7 |
| 20260906070431 | 25 | 299 | 0.0 | 0.0 | 0.00 | 0.00 | 0.00 | 89 | 991.7 |
| 20260906065926 | 25 | 312 | 0.0 | 0.0 | 0.00 | 0.00 | 0.00 | 90 | 991.7 |
| 20260906065420 | 25 | 300 | 0.0 | 0.0 | 0.00 | 0.00 | 0.00 | 90 | 991.6 |
| 20260906064916 | 25 | 269 | 0.0 | 0.0 | 0.00 | 0.00 | 0.00 | 90 | 991.8 |
| 20260906064412 | 25 | 265 | 0.0 | 0.0 | 0.00 | 0.00 | 0.00 | 90 | 991.8 |
| 20260906063907 | 25 | 288 | 0.0 | 0.0 | 0.00 | 0.00 | 0.00 | 89 | 991.8 |
| 20260906063402 | 25 | 306 | 0.0 | 0.0 | 0.00 | 0.00 | 0.00 | 90 | 991.9 |
| 20260906062857 | 25 | 228 | 0.0 | 0.0 | 0.00 | 0.00 | 0.00 | 90 | 991.7 |
| 20260906062356 | 26 | 272 | 1.6 | 1.6 | 0.00 | 0.00 | 0.00 | 89 | 991.6 |
| 20260906061852 | 26 | 278 | 0.0 | 0.0 | 0.00 | 0.00 | 0.00 | 88 | 991.8 |
| 20260906061348 | 26 | 301 | 0.0 | 0.0 | 0.00 | 0.00 | 0.00 | 88 | 991.7 |
| 20260906060843 | 26 | 302 | 0.0 | 0.0 | 0.00 | 0.00 | 0.00 | 87 | 991.8 |
| 20260906060340 | 26 | 299 | 0.0 | 0.0 | 0.00 | 0.00 | 0.00 | 87 | 991.6 |
| 20260906055836 | 25 | 286 | 0.0 | 0.0 | 0.00 | 0.00 | 0.00 | 89 | 992.0 |
| 20260906055331 | 25 | 278 | 1.6 | 1.6 | 0.00 | 0.00 | 0.00 | 93 | 991.9 |
| 20260906054827 | 25 | 305 | 0.0 | 1.6 | 0.00 | 0.00 | 0.00 | 94 | 991.9 |
| 20260906054321 | 25 | 305 | 0.0 | 0.0 | 0.00 | 0.00 | 0.00 | 95 | 992.0 |
| 20260906053818 | 25 | 267 | 0.0 | 0.0 | 0.00 | 0.00 | 0.00 | 94 | 992.2 |
| 20260906053313 | 25 | 308 | 0.0 | 0.0 | 0.00 | 0.00 | 0.00 | 94 | 992.1 |
| 20260906052809 | 25 | 308 | 0.0 | 0.0 | 0.00 | 0.00 | 0.00 | 93 | 992.0 |
| 20260906052306 | 25 | 309 | 0.0 | 0.0 | 0.00 | 0.00 | 0.00 | 93 | 992.1 |
| 20260906051802 | 26 | 308 | 0.0 | 0.0 | 0.00 | 0.00 | 0.00 | 93 | 992.2 |
| 20260906051301 | 25 | 316 | 0.0 | 0.0 | 0.00 | 0.00 | 0.00 | 92 | 992.1 |
| 20260906050756 | 26 | 323 | 0.0 | 0.0 | 0.00 | 0.00 | 0.00 | 91 | 992.0 |
| 20260906050252 | 26 | 323 | 0.0 | 0.0 | 0.00 | 0.00 | 0.00 | 91 | 992.2 |
| 20260906045750 | 26 | 323 | 0.0 | 0.0 | 0.00 | 0.00 | 0.00 | 92 | 991.8 |
| 20260906045245 | 26 | 329 | 0.0 | 0.0 | 0.00 | 0.00 | 0.00 | 92 | 992.1 |
| 20260906044741 | 26 | 330 | 0.0 | 0.0 | 0.00 | 0.00 | 0.00 | 91 | 992.1 |
| 20260906044236 | 26 | 305 | 0.0 | 0.0 | 0.00 | 0.00 | 0.00 | 91 | 992.0 |
| 20260906043732 | 26 | 305 | 0.0 | 0.0 | 0.00 | 0.00 | 0.00 | 91 | 992.2 |
| 20260906043228 | 26 | 305 | 0.0 | 0.0 | 0.00 | 0.00 | 0.00 | 90 | 992.1 |
| 20260906042727 | 26 | 313 | 0.0 | 0.0 | 0.00 | 0.00 | 0.00 | 90 | 992.1 |
| 20260906042226 | 26 | 314 | 0.0 | 0.0 | 0.00 | 0.00 | 0.00 | 89 | 991.9 |
| 20260906041722 | 26 | 322 | 0.0 | 0.0 | 0.00 | 0.00 | 0.00 | 89 | 992.2 |
| 20260906041217 | 26 | 329 | 0.0 | 0.0 | 0.00 | 0.00 | 0.00 | 89 | 992.1 |
| 20260906040713 | 26 | 351 | 0.0 | 0.0 | 0.00 | 0.00 | 0.00 | 89 | 992.0 |
| 20260906040208 | 26 | 321 | 0.0 | 0.0 | 0.00 | 0.00 | 0.00 | 90 | 992.3 |
| 20260906035703 | 26 | 335 | 0.0 | 0.0 | 0.00 | 0.00 | 0.00 | 90 | 992.0 |
| 20260906035159 | 26 | 308 | 0.0 | 0.0 | 0.00 | 0.00 | 0.00 | 90 | 992.2 |
| 20260906034653 | 26 | 307 | 0.0 | 0.0 | 0.00 | 0.00 | 0.00 | 89 | 992.1 |
| 20260906034148 | 26 | 293 | 0.0 | 0.0 | 0.00 | 0.00 | 0.00 | 89 | 992.1 |
| 20260906033643 | 26 | 271 | 0.0 | 0.0 | 0.00 | 0.00 | 0.00 | 89 | 992.2 |
| 20260906033138 | 26 | 272 | 0.0 | 0.0 | 0.00 | 0.00 | 0.00 | 88 | 992.2 |
| 20260906032635 | 27 | 296 | 0.0 | 0.0 | 0.00 | 0.00 | 0.00 | 87 | 992.2 |
| 20260906032134 | 27 | 272 | 0.0 | 0.0 | 0.00 | 0.00 | 0.00 | 84 | 992.1 |
| 20260906031630 | 27 | 325 | 0.0 | 0.0 | 0.00 | 0.00 | 0.00 | 83 | 992.0 |
| 20260906031125 | 27 | 324 | 0.0 | 0.0 | 0.00 | 0.00 | 0.00 | 84 | 991.9 |
| 20260906030624 | 27 | 353 | 0.0 | 0.0 | 0.00 | 0.00 | 0.00 | 84 | 991.9 |
| 20260906030120 | 27 | 357 | 0.0 | 0.0 | 0.00 | 0.00 | 0.00 | 83 | 991.9 |
| 20260906025619 | 28 | 263 | 0.0 | 0.0 | 0.00 | 0.00 | 0.00 | 81 | 991.9 |
| 20260906025118 | 28 | 306 | 0.0 | 0.0 | 0.00 | 0.00 | 0.00 | 79 | 992.0 |
| 20260906024613 | 27 | 277 | 0.0 | 0.0 | 0.00 | 0.00 | 0.00 | 81 | 991.7 |
| 20260906024108 | 27 | 300 | 0.0 | 0.0 | 0.00 | 0.00 | 0.00 | 82 | 991.9 |
| 20260906023604 | 27 | 291 | 0.0 | 0.0 | 0.00 | 0.00 | 0.00 | 83 | 991.9 |
| 20260906023057 | 27 | 292 | 0.0 | 0.0 | 0.00 | 0.00 | 0.00 | 83 | 991.8 |
| 20260906022553 | 27 | 308 | 0.0 | 0.0 | 0.00 | 0.00 | 0.00 | 82 | 991.8 |
| 20260906022048 | 27 | 280 | 0.0 | 0.0 | 0.00 | 0.00 | 0.00 | 83 | 991.9 |
| 20260906021544 | 28 | 256 | 0.0 | 1.6 | 0.00 | 0.00 | 0.00 | 84 | 991.6 |
| 20260906021043 | 28 | 275 | 0.0 | 0.0 | 0.00 | 0.00 | 0.00 | 82 | 991.6 |
| 20260906020543 | 28 | 274 | 0.0 | 0.0 | 0.00 | 0.00 | 0.00 | 78 | 991.6 |
| 20260906020042 | 28 | 302 | 0.0 | 0.0 | 0.00 | 0.00 | 0.00 | 77 | 991.6 |
| 20260906015542 | 28 | 295 | 0.0 | 0.0 | 0.00 | 0.00 | 0.00 | 78 | 991.5 |
| 20260906015041 | 28 | 310 | 0.0 | 0.0 | 0.00 | 0.00 | 0.00 | 78 | 991.2 |
| 20260906014536 | 29 | 294 | 0.0 | 0.0 | 0.00 | 0.00 | 0.00 | 75 | 991.4 |
| 20260906014032 | 29 | 333 | 0.0 | 0.0 | 0.00 | 0.00 | 0.00 | 74 | 991.2 |
| 20260906013527 | 30 | 312 | 0.0 | 0.0 | 0.00 | 0.00 | 0.00 | 73 | 991.3 |
| 20260906013023 | 30 | 320 | 0.0 | 0.0 | 0.00 | 0.00 | 0.00 | 71 | 991.1 |
| 20260906012518 | 30 | 326 | 0.0 | 0.0 | 0.00 | 0.00 | 0.00 | 70 | 991.2 |
| 20260906012017 | 30 | 328 | 0.0 | 0.0 | 0.00 | 0.00 | 0.00 | 70 | 991.0 |
| 20260906011514 | 30 | 329 | 0.0 | 0.0 | 0.00 | 0.00 | 0.00 | 71 | 991.1 |
| 20260906011013 | 30 | 301 | 0.0 | 0.0 | 0.00 | 0.00 | 0.00 | 70 | 991.2 |
| 20260906010508 | 30 | 299 | 0.0 | 0.0 | 0.00 | 0.00 | 0.00 | 70 | 991.1 |
| 20260906010005 | 31 | 293 | 0.0 | 0.0 | 0.00 | 0.00 | 0.00 | 68 | 991.0 |
| 20260906005504 | 31 | 302 | 0.0 | 0.0 | 0.00 | 0.00 | 0.00 | 65 | 990.9 |
| 20260906005002 | 31 | 300 | 0.0 | 0.0 | 0.00 | 0.00 | 0.00 | 64 | 990.9 |
| 20260906004457 | 31 | 317 | 0.0 | 0.0 | 0.00 | 0.00 | 0.00 | 63 | 990.7 |
| 20260906003952 | 31 | 312 | 0.0 | 0.0 | 0.00 | 0.00 | 0.00 | 62 | 990.8 |
| 20260906003447 | 32 | 312 | 0.0 | 0.0 | 0.00 | 0.00 | 0.00 | 63 | 991.0 |
| 20260906002943 | 32 | 312 | 0.0 | 0.0 | 0.00 | 0.00 | 0.00 | 61 | 990.7 |
| 20260906002443 | 32 | 271 | 0.0 | 0.0 | 0.00 | 0.00 | 0.00 | 60 | 990.7 |
| 20260906001938 | 33 | 310 | 0.0 | 0.0 | 0.00 | 0.00 | 0.00 | 59 | 990.8 |
| 20260906001434 | 33 | 317 | 0.0 | 0.0 | 0.00 | 0.00 | 0.00 | 58 | 990.8 |
| 20260906000928 | 33 | 339 | 0.0 | 0.0 | 0.00 | 0.00 | 0.00 | 57 | 991.0 |
| 20260906000425 | 33 | 346 | 0.0 | 1.6 | 0.00 | 0.00 | 0.00 | 56 | 990.9 |
| 20260905235913 | 33 | 5 | 1.6 | 3.2 | 0.00 | 0.00 | 0.00 | 55 | 991.0 |
| 20260905235407 | 34 | 5 | 3.2 | 3.2 | 0.00 | 0.00 | 0.00 | 54 | 990.7 |
| 20260905234902 | 35 | 322 | 0.0 | 0.0 | 0.00 | 0.00 | 0.00 | 54 | 990.8 |
| 20260905234357 | 35 | 329 | 0.0 | 0.0 | 0.00 | 0.00 | 0.00 | 52 | 991.0 |
| 20260905233852 | 35 | 323 | 0.0 | 0.0 | 0.00 | 0.00 | 0.00 | 52 | 990.8 |
| 20260905233347 | 35 | 14 | 0.0 | 0.0 | 0.00 | 0.00 | 0.00 | 51 | 990.8 |
| 20260905232847 | 35 | 327 | 0.0 | 0.0 | 0.00 | 0.00 | 0.00 | 52 | 990.8 |
| 20260905232343 | 35 | 333 | 0.0 | 0.0 | 0.00 | 0.00 | 0.00 | 51 | 990.9 |
| 20260905231838 | 35 | 332 | 0.0 | 0.0 | 0.00 | 0.00 | 0.00 | 50 | 990.7 |
| 20260905231333 | 35 | 352 | 0.0 | 0.0 | 0.00 | 0.00 | 0.00 | 49 | 990.7 |
| 20260905230830 | 36 | 326 | 0.0 | 0.0 | 0.00 | 0.00 | 0.00 | 49 | 991.0 |
| 20260905230327 | 36 | 89 | 0.0 | 1.6 | 0.00 | 0.00 | 0.00 | 48 | 990.9 |
| 20260905225826 | 36 | 24 | 3.2 | 3.2 | 0.00 | 0.00 | 0.00 | 48 | 990.7 |
| 20260905225321 | 36 | 78 | 0.0 | 0.0 | 0.00 | 0.00 | 0.00 | 47 | 990.8 |
| 20260905224816 | 36 | 324 | 0.0 | 0.0 | 0.00 | 0.00 | 0.00 | 50 | 990.8 |
| 20260905224312 | 36 | 330 | 0.0 | 0.0 | 0.00 | 0.00 | 0.00 | 48 | 990.9 |
| 20260905223807 | 36 | 311 | 0.0 | 0.0 | 0.00 | 0.00 | 0.00 | 47 | 990.6 |
| 20260905223304 | 36 | 354 | 0.0 | 1.6 | 0.00 | 0.00 | 0.00 | 48 | 990.9 |
| 20260905222759 | 36 | 156 | 1.6 | 1.6 | 0.00 | 0.00 | 0.00 | 46 | 990.8 |
| 20260905222258 | 36 | 358 | 0.0 | 1.6 | 0.00 | 0.00 | 0.00 | 47 | 991.0 |
| 20260905221754 | 37 | 346 | 3.2 | 3.2 | 0.00 | 0.00 | 0.00 | 46 | 990.9 |
| 20260905221251 | 37 | 22 | 0.0 | 1.6 | 0.00 | 0.00 | 0.00 | 45 | 990.9 |
| 20260905220746 | 37 | 323 | 1.6 | 1.6 | 0.00 | 0.00 | 0.00 | 45 | 990.8 |
| 20260905220242 | 36 | 342 | 1.6 | 1.6 | 0.00 | 0.00 | 0.00 | 46 | 990.7 |
| 20260905215741 | 37 | 340 | 0.0 | 1.6 | 0.00 | 0.00 | 0.00 | 45 | 991.1 |
| 20260905215237 | 36 | 310 | 1.6 | 1.6 | 0.00 | 0.00 | 0.00 | 47 | 991.0 |
| 20260905214733 | 37 | 2 | 8.0 | 9.7 | 0.00 | 0.00 | 0.00 | 47 | 991.0 |
| 20260905214228 | 37 | 304 | 1.6 | 1.6 | 0.00 | 0.00 | 0.00 | 45 | 991.1 |
| 20260905213718 | 37 | 321 | 1.6 | 1.6 | 0.00 | 0.00 | 0.00 | 45 | 991.0 |
| 20260905213214 | 37 | 323 | 1.6 | 1.6 | 0.00 | 0.00 | 0.00 | 47 | 991.2 |
| 20260905212709 | 36 | 251 | 1.6 | 1.6 | 0.00 | 0.00 | 0.00 | 47 | 991.0 |
| 20260905212208 | 37 | 359 | 0.0 | 0.0 | 0.00 | 0.00 | 0.00 | 47 | 991.1 |
| 20260905211703 | 37 | 64 | 1.6 | 3.2 | 0.00 | 0.00 | 0.00 | 46 | 991.1 |
| 20260905211158 | 37 | 231 | 1.6 | 1.6 | 0.00 | 0.00 | 0.00 | 44 | 991.3 |
| 20260905210654 | 37 | 11 | 4.8 | 4.8 | 0.00 | 0.00 | 0.00 | 47 | 991.3 |
| 20260905210149 | 37 | 2 | 3.2 | 3.2 | 0.00 | 0.00 | 0.00 | 46 | 991.3 |
| 20260905205648 | 37 | 95 | 3.2 | 3.2 | 0.00 | 0.00 | 0.00 | 47 | 991.1 |
| 20260905205147 | 37 | 72 | 1.6 | 3.2 | 0.00 | 0.00 | 0.00 | 45 | 991.2 |
| 20260905204646 | 37 | 98 | 4.8 | 8.0 | 0.00 | 0.00 | 0.00 | 47 | 991.5 |
| 20260905204142 | 37 | 343 | 3.2 | 3.2 | 0.00 | 0.00 | 0.00 | 48 | 991.4 |
| 20260905203637 | 37 | 17 | 4.8 | 4.8 | 0.00 | 0.00 | 0.00 | 48 | 991.6 |
| 20260905203132 | 37 | 9 | 4.8 | 8.0 | 0.00 | 0.00 | 0.00 | 48 | 991.6 |
| 20260905202628 | 37 | 28 | 1.6 | 3.2 | 0.00 | 0.00 | 0.00 | 48 | 991.8 |
| 20260905202123 | 37 | 33 | 4.8 | 4.8 | 0.00 | 0.00 | 0.00 | 47 | 991.8 |
| 20260905201619 | 36 | 359 | 4.8 | 4.8 | 0.00 | 0.00 | 0.00 | 49 | 991.8 |
| 20260905201118 | 36 | 18 | 1.6 | 3.2 | 0.00 | 0.00 | 0.00 | 47 | 991.9 |
| 20260905200614 | 36 | 355 | 3.2 | 3.2 | 0.00 | 0.00 | 0.00 | 49 | 992.1 |
| 20260905200108 | 36 | 334 | 0.0 | 1.6 | 0.00 | 0.00 | 0.00 | 48 | 992.2 |
| 20260905195602 | 36 | 347 | 3.2 | 4.8 | 0.00 | 0.00 | 0.00 | 48 | 992.2 |
| 20260905195057 | 38 | 45 | 3.2 | 3.2 | 0.00 | 0.00 | 0.00 | 43 | 992.1 |
| 20260905194557 | 38 | 307 | 1.6 | 1.6 | 0.00 | 0.00 | 0.00 | 44 | 992.2 |
| 20260905194056 | 38 | 42 | 3.2 | 3.2 | 0.00 | 0.00 | 0.00 | 43 | 992.4 |
| 20260905193551 | 38 | 303 | 0.0 | 1.6 | 0.00 | 0.00 | 0.00 | 43 | 992.5 |
| 20260905193046 | 38 | 82 | 8.0 | 9.7 | 0.00 | 0.00 | 0.00 | 43 | 992.5 |
| 20260905192542 | 38 | 103 | 8.0 | 11.3 | 0.00 | 0.00 | 0.00 | 42 | 992.5 |
| 20260905192038 | 37 | 307 | 1.6 | 1.6 | 0.00 | 0.00 | 0.00 | 43 | 992.5 |
| 20260905191536 | 37 | 57 | 1.6 | 1.6 | 0.00 | 0.00 | 0.00 | 45 | 992.6 |
| 20260905191036 | 37 | 73 | 3.2 | 3.2 | 0.00 | 0.00 | 0.00 | 46 | 992.8 |
| 20260905190533 | 38 | 356 | 1.6 | 3.2 | 0.00 | 0.00 | 0.00 | 47 | 992.8 |
| 20260905190028 | 38 | 95 | 1.6 | 3.2 | 0.00 | 0.00 | 0.00 | 45 | 992.8 |
| 20260905185527 | 38 | 3 | 0.0 | 1.6 | 0.00 | 0.00 | 0.00 | 44 | 993.0 |
| 20260905185026 | 38 | 305 | 0.0 | 1.6 | 0.00 | 0.00 | 0.00 | 45 | 993.1 |
| 20260905184521 | 37 | 220 | 4.8 | 4.8 | 0.00 | 0.00 | 0.00 | 44 | 993.2 |
| 20260905184019 | 37 | 355 | 1.6 | 1.6 | 0.00 | 0.00 | 0.00 | 46 | 993.2 |
| 20260905183514 | 36 | 313 | 0.0 | 0.0 | 0.00 | 0.00 | 0.00 | 49 | 993.3 |
| 20260905183009 | 36 | 110 | 6.4 | 8.0 | 0.00 | 0.00 | 0.00 | 49 | 993.3 |
| 20260905182509 | 36 | 357 | 1.6 | 1.6 | 0.00 | 0.00 | 0.00 | 49 | 993.3 |
| 20260905182003 | 37 | 112 | 6.4 | 9.7 | 0.00 | 0.00 | 0.00 | 48 | 993.4 |
| 20260905181458 | 37 | 315 | 1.6 | 3.2 | 0.00 | 0.00 | 0.00 | 48 | 993.5 |
| 20260905180957 | 37 | 7 | 8.0 | 11.3 | 0.00 | 0.00 | 0.00 | 49 | 993.3 |
| 20260905180452 | 37 | 347 | 0.0 | 0.0 | 0.00 | 0.00 | 0.00 | 49 | 993.4 |
| 20260905175947 | 37 | 102 | 3.2 | 3.2 | 0.00 | 0.00 | 0.00 | 47 | 993.5 |
| 20260905175447 | 37 | 45 | 1.6 | 3.2 | 0.00 | 0.00 | 0.00 | 48 | 993.4 |
| 20260905174943 | 38 | 89 | 4.8 | 4.8 | 0.00 | 0.00 | 0.00 | 48 | 993.6 |
| 20260905174437 | 37 | 93 | 4.8 | 4.8 | 0.00 | 0.00 | 0.00 | 49 | 993.7 |
| 20260905173933 | 37 | 101 | 3.2 | 3.2 | 0.00 | 0.00 | 0.00 | 48 | 993.7 |
| 20260905173430 | 36 | 347 | 3.2 | 3.2 | 0.00 | 0.00 | 0.00 | 50 | 993.6 |
| 20260905172925 | 37 | 319 | 3.2 | 3.2 | 0.00 | 0.00 | 0.00 | 47 | 993.7 |
| 20260905172422 | 36 | 320 | 1.6 | 1.6 | 0.00 | 0.00 | 0.00 | 51 | 993.8 |
| 20260905171919 | 37 | 294 | 3.2 | 3.2 | 0.00 | 0.00 | 0.00 | 48 | 993.8 |
| 20260905171415 | 36 | 3 | 4.8 | 4.8 | 0.00 | 0.00 | 0.00 | 51 | 994.0 |
| 20260905170911 | 37 | 6 | 3.2 | 3.2 | 0.00 | 0.00 | 0.00 | 49 | 993.9 |
| 20260905170407 | 36 | 30 | 4.8 | 4.8 | 0.00 | 0.00 | 0.00 | 49 | 994.1 |
| 20260905165906 | 36 | 3 | 1.6 | 3.2 | 0.00 | 0.00 | 0.00 | 50 | 993.9 |
| 20260905165401 | 36 | 126 | 1.6 | 3.2 | 0.00 | 0.00 | 0.00 | 51 | 994.0 |
| 20260905164856 | 36 | 312 | 1.6 | 3.2 | 0.00 | 0.00 | 0.00 | 51 | 994.1 |
| 20260905164351 | 36 | 358 | 4.8 | 4.8 | 0.00 | 0.00 | 0.00 | 49 | 994.3 |
| 20260905163846 | 36 | 320 | 0.0 | 1.6 | 0.00 | 0.00 | 0.00 | 50 | 994.4 |
| 20260905163343 | 36 | 331 | 3.2 | 3.2 | 0.00 | 0.00 | 0.00 | 51 | 994.4 |
| 20260905162839 | 36 | 173 | 3.2 | 3.2 | 0.00 | 0.00 | 0.00 | 52 | 994.5 |
| 20260905162338 | 35 | 314 | 0.0 | 1.6 | 0.00 | 0.00 | 0.00 | 54 | 994.4 |
| 20260905161833 | 35 | 317 | 1.6 | 1.6 | 0.00 | 0.00 | 0.00 | 54 | 994.4 |
| 20260905161332 | 35 | 115 | 6.4 | 9.7 | 0.00 | 0.00 | 0.00 | 53 | 994.6 |
| 20260905160830 | 35 | 19 | 6.4 | 9.7 | 0.00 | 0.00 | 0.00 | 54 | 994.5 |
| 20260905160325 | 35 | 357 | 1.6 | 1.6 | 0.00 | 0.00 | 0.00 | 56 | 994.5 |
| 20260905155820 | 35 | 300 | 1.6 | 1.6 | 0.00 | 0.00 | 0.00 | 54 | 994.7 |
| 20260905155319 | 35 | 81 | 0.0 | 1.6 | 0.00 | 0.00 | 0.00 | 56 | 994.7 |
| 20260905154813 | 34 | 18 | 3.2 | 3.2 | 0.00 | 0.00 | 0.00 | 57 | 994.7 |
| 20260905154309 | 34 | 308 | 1.6 | 1.6 | 0.00 | 0.00 | 0.00 | 58 | 994.6 |
| 20260905153804 | 35 | 149 | 1.6 | 1.6 | 0.00 | 0.00 | 0.00 | 58 | 994.6 |
| 20260905153300 | 35 | 307 | 1.6 | 3.2 | 0.00 | 0.00 | 0.00 | 58 | 994.8 |
| 20260905152754 | 35 | 346 | 1.6 | 3.2 | 0.00 | 0.00 | 0.00 | 59 | 994.8 |
| 20260905152254 | 33 | 350 | 3.2 | 3.2 | 0.00 | 0.00 | 0.00 | 59 | 994.8 |
| 20260905151754 | 33 | 291 | 0.0 | 0.0 | 0.00 | 0.00 | 0.00 | 60 | 994.8 |
| 20260905151250 | 33 | 317 | 3.2 | 4.8 | 0.00 | 0.00 | 0.00 | 61 | 994.7 |
| 20260905150744 | 33 | 7 | 0.0 | 0.0 | 0.00 | 0.00 | 0.00 | 64 | 994.9 |
| 20260905150244 | 33 | 345 | 1.6 | 1.6 | 0.00 | 0.00 | 0.00 | 65 | 994.9 |
| 20260905145741 | 32 | 348 | 1.6 | 3.2 | 0.00 | 0.00 | 0.00 | 67 | 994.8 |
| 20260905145236 | 33 | 7 | 3.2 | 4.8 | 0.00 | 0.00 | 0.00 | 64 | 995.0 |
| 20260905144735 | 32 | 79 | 1.6 | 1.6 | 0.00 | 0.00 | 0.00 | 65 | 995.0 |
| 20260905144230 | 32 | 324 | 0.0 | 1.6 | 0.00 | 0.00 | 0.00 | 68 | 994.9 |
| 20260905143730 | 32 | 55 | 1.6 | 1.6 | 0.00 | 0.00 | 0.00 | 67 | 995.0 |
| 20260905143229 | 31 | 314 | 0.0 | 0.0 | 0.00 | 0.00 | 0.00 | 70 | 995.0 |
| 20260905142727 | 31 | 349 | 0.0 | 1.6 | 0.00 | 0.00 | 0.00 | 68 | 994.8 |
| 20260905142222 | 32 | 0 | 1.6 | 3.2 | 0.00 | 0.00 | 0.00 | 69 | 994.8 |
| 20260905141718 | 31 | 301 | 0.0 | 1.6 | 0.00 | 0.00 | 0.00 | 70 | 994.7 |
| 20260905141214 | 31 | 27 | 3.2 | 3.2 | 0.00 | 0.00 | 0.00 | 72 | 994.6 |
| 20260905140709 | 30 | 107 | 1.6 | 3.2 | 0.00 | 0.00 | 0.00 | 74 | 994.6 |
| 20260905140203 | 30 | 9 | 3.2 | 3.2 | 0.00 | 0.00 | 0.00 | 74 | 994.5 |
| 20260905135657 | 30 | 116 | 4.8 | 4.8 | 0.00 | 0.00 | 0.00 | 76 | 994.5 |
| 20260905135148 | 29 | 101 | 3.2 | 3.2 | 0.00 | 0.00 | 0.00 | 78 | 994.7 |
| 20260905134647 | 29 | 31 | 0.0 | 1.6 | 0.00 | 0.00 | 0.00 | 78 | 994.7 |
| 20260905134146 | 28 | 95 | 3.2 | 3.2 | 0.00 | 0.00 | 0.00 | 80 | 994.7 |
| 20260905133641 | 28 | 28 | 1.6 | 1.6 | 0.00 | 0.00 | 0.00 | 80 | 994.8 |
| 20260905133136 | 28 | 85 | 1.6 | 1.6 | 0.00 | 0.00 | 0.00 | 81 | 994.6 |
| 20260905132635 | 28 | 92 | 1.6 | 1.6 | 0.00 | 0.00 | 0.00 | 82 | 994.7 |
| 20260905132131 | 28 | 21 | 1.6 | 1.6 | 0.00 | 0.00 | 0.00 | 83 | 994.9 |
| 20260905131626 | 27 | 107 | 4.8 | 4.8 | 0.00 | 0.00 | 0.00 | 84 | 994.9 |
| 20260905131120 | 26 | 3 | 0.0 | 0.0 | 0.00 | 0.00 | 0.00 | 88 | 995.0 |
| 20260905130615 | 26 | 329 | 0.0 | 0.0 | 0.00 | 0.00 | 0.00 | 89 | 994.9 |
| 20260905130115 | 26 | 351 | 0.0 | 0.0 | 0.00 | 0.00 | 0.00 | 89 | 994.9 |
| 20260905125609 | 25 | 330 | 0.0 | 0.0 | 0.00 | 0.00 | 0.00 | 93 | 994.6 |
| 20260905125105 | 25 | 315 | 0.0 | 0.0 | 0.00 | 0.00 | 0.00 | 95 | 994.6 |
| 20260905124601 | 25 | 327 | 0.0 | 0.0 | 0.00 | 0.00 | 0.00 | 97 | 994.5 |
| 20260905124057 | 23 | 313 | 0.0 | 0.0 | 0.00 | 0.00 | 0.00 | 98 | 994.6 |
| 20260905123551 | 23 | 326 | 0.0 | 0.0 | 0.00 | 0.00 | 0.00 | 99 | 994.5 |